This is the latest recevied weather packets stored in our database for station/object BM1CCR-13. If no packets are shown the sender has not sent any weather packets the latest 10 day(s).
| Time | Temp. | Humidity | Pressure | Rain* | Wind** | Luminosity | Snow |
|---|---|---|---|---|---|---|---|
| 1777272432 | 30.56° C | 47% | 1001.4 hPa | 0 mm | - | - | - |
| 1777272131 | 31.67° C | 47% | 1001.5 hPa | 0 mm | - | - | - |
| 1777271851 | 28.89° C | 50% | 1001.5 hPa | 0 mm | - | - | - |
| 1777271830 | 28.89° C | 50% | 1001.4 hPa | 0 mm | - | - | - |
| 1777271531 | 30° C | 48% | 1001.6 hPa | 0 mm | - | - | - |
| 1777271251 | 30° C | 49% | 1001.7 hPa | 0 mm | - | - | - |
| 1777271231 | 30° C | 49% | 1001.8 hPa | 0 mm | - | - | - |
| 1777270949 | 28.89° C | 50% | 1001.8 hPa | 0 mm | - | - | - |
| 1777270931 | 28.89° C | 50% | 1001.9 hPa | 0 mm | - | - | - |
| 1777270649 | 28.89° C | 50% | 1001.8 hPa | 0 mm | - | - | - |
| 1777270631 | 28.89° C | 50% | 1002 hPa | 0 mm | - | - | - |
| 1777270349 | 28.89° C | 50% | 1001.8 hPa | 0 mm | - | - | - |
| 1777270331 | 28.89° C | 49% | 1001.8 hPa | 0 mm | - | - | - |
| 1777270048 | 30° C | 50% | 1001.8 hPa | 0 mm | - | - | - |
| 1777270031 | 30° C | 50% | 1001.7 hPa | 0 mm | - | - | - |
| 1777269749 | 28.89° C | 51% | 1001.7 hPa | 0 mm | - | - | - |
| 1777269732 | 28.89° C | 51% | 1001.8 hPa | 0 mm | - | - | - |
| 1777269432 | 28.89° C | 51% | 1001.7 hPa | 0 mm | - | - | - |
| 1777269149 | 27.78° C | 51% | 1001.9 hPa | 0 mm | - | - | - |
| 1777269129 | 27.78° C | 51% | 1001.8 hPa | 0 mm | - | - | - |
| 1777268849 | 28.89° C | 48% | 1001.9 hPa | 0 mm | - | - | - |
| 1777268829 | 28.89° C | 48% | 1002 hPa | 0 mm | - | - | - |
| 1777268529 | 30° C | 48% | 1002 hPa | 0 mm | - | - | - |
| 1777268249 | 30° C | 47% | 1002 hPa | 0 mm | - | - | - |
| 1777268229 | 30° C | 47% | 1001.9 hPa | 0 mm | - | - | - |
* Rain latest hour (hover to see other rain measurements)
** Current wind speed in m/s (hover to see current wind gust speed)